Probability
0 0 0 0 0 0 0 0 0 0 0 0 0 0 0 0 0 0 0 0 0 0 0 0 0 0 0 0 0 0 0 0 0 0 0 0 0 0 0 0 0 0 0
0 0 0 0 0 0 0 0 0 0 0 0 0 0 0 0 0 0 0 0 0 0 0 0 0 0 0 0 0 0 0 0 0 0 0 0 0 0 0 0 0 0 0
0 0 0 0 0 0 0 0 0 0 0 0 0 0 0 0 0 0 0 0 0 0 0 0 0 0 0 0 0 0 0 0 0 0 0 0 0 0 0 0 0 0 0
0 0 0 0 0 0 0 0 0 0 0 0 0 0 0 0 0 0 0 0 0 0 0 0 0 0 0 0 0 0 0 0 0 0 0 0 0 0 0 0 0 0 0
0 0 0 0 0 0 0 0 0 0 0 0 0 0 0 0 0 0 0 0 0 0 0 0 0 0 0 0 0 0 0 0 0 0 0 0 0 0 0 0 0 0 0
0 0 0 0 0 0 0 0 0 0 0 0 0 0 0 0 0 0 0 0 0 0 0 0 0 0 0 0 0 0 0 0 0 0 0 0 0 0 0 0 0 0 0
0 0 0 0 0 0 0 0 0 0 0 0 0 0 0 0 0 0 0 0 0 0 0 0 0 0 0 0 0 0 0 0 0 0 0 0 0 0 0 0 0 0 0
0 0 0 0 0 0 0 0 0 0 0 0 0 0 0 0 0 0 0 0 0 0 0 0 0 0 0 0 0 0 0 0 0 0 0 0 0 0 0 0 0 0 0
0 0 0 0 0 0 0 0 0 0 0 0 0 0 0 0 0 0 0 0 0 0 0 0 0 0 0 0 0 0 0 0 0 0 0 0 0 0 0 0 0 0 0
0 0 0 0 0 0 0 0 0 0 0 0 0 0 0 0 0 0 0 0 0 0 0 0 0 0 0 0 0 0 0 0 0 0 0 0 0 0 0 0 0 0 0
0 0 0 0 0 0 0 0 0 0 0 0 0 0 0 0 0 0 0 0 0 0 0 0 0 0 0 0 0 0 0 0 0 0 0 0 0 0 0 0 0 0 0
0 0 0 0 0 0 0 0 0 0 0 0 0 0 0 0 0 0 0 0 0 0 0 0 0 0 0 0 0 0 0 0 0 0 0 0 0 0 0 0 0 0 0
0 0 0 0 0 0 0 0 0 0 0 0 0 0 0 0 0 0 0 0 0 0 0 0 0 0 0 0 0 0 0 0 0 0 0 0 0 0 0 0 0 0 0
0 0 0 0 0 0 0 0 0 0 0 0 0 0 0 0 0 0 0 0 0 0 0 0 0 0 0 0 0 0 0 0 0 0 0 0 0 0 0 0 0 0 0
0 0 0 0 0 0 0 0 0 0 0 0 0 0 0 0 0 0 0 0 0 0 0 0 0 0 0 0 0 0 0 0 0 0 0 0 0 0 0 0 0 0 0
0 0 0 0 0 0 0 0 0 0 0 0 0 0 0 0 0 0 0 0 0 0 0 0 0 0 0 0 0 0 0 0 0 0 0 0 0 0 0 0 0 0 0
0 0 0 0 0 0 0 0 0 0 0 0 0 0 0 0 0 0 0 0 0 0 0 0 0 0 0 0 0 0 0 0 0 0 0 0 0 0 0 0 0 0 0
0 0 0 0 0 0 0 0 0 0 0 0 0 0 0 0 0 0 0 0 0 0 0 0 0 0 0 0 0 0 0 0 0 0 0 0 0 0 0 0 0 0 0
0 0 0 0 0 0 0 0 0 0 0 0 0 0 0 0 0 0 0 0 0 0 0 0 0 0 0 0 0 0 0 0 0 0 0 0 0 0 0 0 0 0 0
0 0 0 0 0 0 0 0 0 0 0 0 0 0 0 0 0 0 0 0 0 0 0 0 0 0 0 0 0 0 0 0 0 0 0 0 0 0 0 0 0 0 0
0 0 0 0 0 0 0 0 0 0 0 0 0 0 0 0 0 0 0 0 0 0 0 0 0 0 0 0 0 0 0 0 0 0 0 0 0 0 0 0 0 0 0
0 0 0 0 0 0 0 0 0 0 0 0 0 0 0 0 0 0 0 0 0 0 0 0 0 0 0 0 0 0 0 0 0 0 0 0 0 0 0 0 0 0 0
0 0 0 0 0 0 0 0 0 0 0 0 0 0 0 0 0 0 0 0 0 0 0 0 0 0 0 0 0 0 0 0 0 0 0 0 0 0 0 0 0 0 0
0 0 0 0 0 0 0 0 0 0 0 0 0 0 0 0 0 0 0 0 0 0 0 0 0 0 0 0 0 0 0 0 0 0 0 0 0 0 0 0 0 0 0
0 0 0 0 0 0 0 0 0 0 0 0 0 0 0 0 0 0 0 0 0 0 0 0 0 0 0 0 0 0 0 0 0 0 0 0 0 0 0 0 0 0 0
0 0 0 0 0 0 0 0 0 0 0 0 0 0 0 0 0 0 0 0 0 0 0 0 0 0 0 0 0 0 0 0 0 0 0 0 0 0 0 0 0 0 0
Wind_Speed
1 1 2 2 2 3 3 4 4 4 4 4 5 5 5 5 5 5 5 5 5 5 5 5 6 5 4 4 4 5 5 5 8 7 5 5 6 7 6 6 6 7 6
1 1 2 2 2 3 3 3 3 4 4 4 4 5 5 5 5 5 5 6 6 6 6 6 6 5 6 5 5 6 6 6 7 9 7 5 7 7 7 7 6 6 7
1 1 2 2 2 3 3 3 3 3 3 3 3 5 5 5 5 5 6 6 6 6 6 6 6 6 6 5 6 6 5 5 6 7 7 5 5 5 6 6 7 6 7
1 2 2 2 3 3 3 3 3 3 3 3 4 4 5 5 5 5 5 5 6 6 6 6 7 7 7 7 6 7 6 6 6 6 6 5 5 5 5 5 6 5 6
2 2 2 2 2 2 2 2 2 3 3 3 4 4 4 4 4 5 5 5 5 6 6 6 7 7 8 7 6 6 6 6 5 6 6 5 5 4 5 4 6 6 6
2 2 2 2 2 2 2 2 2 3 3 3 4 4 4 4 5 6 5 5 6 6 6 6 6 7 8 9 9 9 8 7 7 6 6 7 7 6 5 4 5 5 6
2 2 2 2 2 2 2 2 3 3 3 3 4 4 5 5 5 6 6 5 5 6 6 6 5 5 6 6 7 9 9 10 10 8 8 8 7 6 5 6 6 6 7
2 2 2 2 3 2 2 2 3 2 3 3 3 4 5 5 5 6 6 5 5 6 6 6 6 6 5 6 6 6 7 8 8 8 8 8 7 6 6 7 7 7 7
2 3 3 3 3 3 3 3 2 2 2 3 3 4 4 4 5 5 5 4 4 6 6 6 6 6 7 7 6 7 7 7 7 9 9 9 9 8 6 4 5 5 6
3 3 3 3 3 3 3 3 2 2 3 2 3 3 4 5 5 5 5 4 4 4 5 5 6 7 7 8 7 7 8 7 5 6 7 8 8 8 8 7 6 6 5
3 2 2 3 3 3 3 2 2 2 2 2 3 3 4 4 5 6 6 3 4 4 4 4 5 8 9 9 8 7 8 6 5 5 5 5 4 4 5 5 5 6 6
2 2 3 3 2 2 2 2 2 2 2 3 3 3 3 3 5 6 6 6 6 5 5 4 5 7 9 9 8 7 7 5 4 4 4 4 4 4 4 4 5 6 6
2 3 3 3 2 2 2 2 2 2 2 2 3 3 4 3 4 6 7 7 7 5 4 6 6 7 7 6 7 6 4 3 3 4 4 4 4 4 3 3 3 4 5
2 3 3 3 3 2 2 2 2 2 3 3 3 4 4 3 3 3 4 4 5 5 4 4 5 5 4 4 4 4 3 3 4 4 4 3 3 2 3 2 3 3 3
3 3 3 3 3 3 3 3 3 3 4 4 4 4 4 5 5 6 4 3 3 4 3 2 2 3 3 3 3 3 3 3 3 3 3 3 3 3 2 2 2 3 3
3 3 3 2 2 3 3 4 5 5 7 7 7 6 5 7 8 7 7 7 6 4 3 3 4 4 4 4 4 4 3 4 4 3 4 3 3 3 3 2 2 3 3
4 3 3 3 3 3 3 4 4 5 6 7 8 8 8 8 8 8 8 7 6 4 3 4 4 5 5 4 4 4 4 4 3 4 4 4 3 3 3 3 3 3 3
4 4 4 3 3 3 3 4 4 4 5 5 6 8 9 9 8 8 7 5 4 3 4 5 5 5 5 5 5 4 4 3 3 4 4 4 3 3 3 3 3 3 3
4 3 3 3 3 3 3 4 4 5 5 5 5 5 6 8 8 7 5 3 4 4 4 5 5 5 5 4 4 4 4 4 4 4 4 4 4 4 4 3 3 4 4
3 4 4 4 3 3 3 4 4 4 5 5 5 5 4 4 4 4 3 4 4 4 4 5 5 5 4 4 4 4 4 4 4 4 4 4 4 4 4 4 4 3 3
3 4 4 4 4 4 4 4 4 5 5 5 6 6 7 4 4 4 4 4 4 5 5 5 4 4 4 4 4 4 5 4 4 4 4 4 4 4 3 3 3 3 3
4 4 4 4 4 4 4 5 5 5 6 7 6 6 8 5 5 5 5 5 4 4 4 4 4 4 4 4 4 4 5 4 4 4 4 3 3 3 3 3 3 3 3
4 4 4 4 4 5 5 5 5 5 6 6 6 6 5 5 5 5 5 5 4 4 4 4 4 4 4 4 4 5 5 5 4 4 4 4 4 3 3 4 4 4 3
4 5 5 5 5 5 5 5 6 6 6 6 6 6 6 6 6 6 5 5 4 5 4 4 5 6 7 5 4 4 4 4 4 4 6 5 4 4 4 4 4 4 3
4 5 5 5 5 6 6 6 6 6 6 6 6 6 6 6 6 6 5 5 5 5 6 6 5 5 7 7 6 5 6 6 5 4 4 5 5 5 5 5 4 3 3
5 5 5 5 6 6 6 7 7 7 7 7 6 7 7 6 6 6 5 5 5 5 5 5 6 7 7 6 7 7 7 7 6 6 5 5 5 5 5 4 4 4 4
Wind_Direction
253 241 235 237 235 236 238 238 236 236 231 224 219 213 213 213 212 211 217 220 224 227 227 229 238 243 244 242 240 241 243 246 259 274 278 284 279 278 279 276 274 272 271
273 260 256 257 247 243 245 246 241 237 234 231 224 216 217 219 220 218 221 224 224 227 228 230 236 239 241 242 241 241 242 243 252 267 277 278 277 277 279 279 278 275 272
272 264 260 261 261 261 260 256 247 240 239 236 232 223 219 222 224 226 227 230 231 233 232 232 237 236 239 242 242 244 245 246 248 257 268 275 277 278 283 281 280 278 276
281 265 266 271 271 269 267 264 257 247 239 237 238 237 228 227 229 231 231 235 237 240 241 240 240 238 240 242 244 245 247 248 247 252 262 270 273 276 276 279 281 277 277
276 270 276 283 281 277 272 270 268 254 247 242 240 241 235 228 227 231 231 236 237 241 244 245 245 247 249 249 248 249 246 246 246 249 257 265 266 269 266 273 276 283 277
266 275 290 289 280 273 272 271 268 263 255 248 246 245 244 240 240 238 240 237 238 241 246 247 249 246 250 251 255 256 254 250 249 248 252 255 261 263 269 268 275 282 276
269 284 294 285 275 273 273 268 262 261 256 252 253 254 253 256 245 237 240 244 242 245 248 249 251 252 252 252 257 257 255 256 253 250 250 252 258 257 259 261 261 265 268
275 282 291 287 280 277 266 263 266 262 257 257 259 259 259 261 258 245 240 241 246 247 248 249 253 255 254 259 260 258 260 257 258 256 255 260 263 260 249 254 261 267 272
283 289 290 281 274 270 268 269 269 268 267 269 272 269 267 271 268 260 245 244 252 257 257 253 253 258 262 263 261 261 265 264 260 258 261 264 267 263 255 255 255 260 269
292 294 293 281 269 263 264 270 275 268 270 278 283 279 276 278 280 269 258 248 253 260 261 257 254 259 265 257 257 259 265 270 270 268 260 260 257 256 247 238 240 249 263
301 297 296 287 279 274 274 275 277 275 276 276 280 284 282 282 281 274 268 266 260 261 260 259 258 262 265 260 259 259 269 277 265 263 264 263 260 256 252 244 240 243 252
304 297 296 296 290 284 278 280 276 273 274 280 286 292 291 290 286 281 275 274 281 267 264 268 271 269 268 268 266 272 278 276 266 264 263 263 264 264 264 259 253 251 251
307 299 298 300 291 284 274 273 269 264 269 278 281 285 291 291 286 287 284 282 282 278 276 278 280 275 272 268 274 286 278 269 272 268 268 272 275 276 271 264 263 265 266
290 294 300 298 294 287 275 265 262 257 261 269 274 280 288 289 288 293 290 285 283 280 283 281 276 276 277 288 291 282 271 268 266 267 275 281 286 281 273 276 276 276 275
287 290 292 289 292 289 281 271 269 266 262 267 268 271 278 280 286 294 291 279 276 278 285 277 275 279 273 275 277 279 272 268 266 271 273 277 276 272 274 275 268 268 266
284 286 285 286 286 286 289 290 279 277 283 278 279 280 276 279 292 284 279 278 277 275 261 262 261 260 260 263 265 268 264 262 266 270 272 271 270 270 273 273 267 258 266
279 284 283 283 282 283 284 286 295 294 283 281 281 283 284 287 286 286 284 275 266 254 253 261 261 261 261 259 256 257 261 261 261 259 262 265 266 265 264 263 260 262 264
280 279 278 278 280 279 278 281 283 289 295 294 287 285 289 290 290 289 288 278 261 254 258 261 264 265 264 260 254 254 257 256 250 252 254 256 254 256 258 261 258 258 263
278 278 277 276 275 275 277 277 278 279 281 287 294 293 289 288 283 279 273 260 259 258 259 261 264 265 264 261 259 256 251 247 247 248 249 248 248 248 252 256 259 257 255
276 279 281 276 273 272 271 272 274 276 279 281 283 289 299 291 280 273 253 252 255 258 261 262 263 264 264 262 260 257 254 249 245 243 247 247 246 245 249 249 251 252 251
282 281 277 274 271 270 270 269 271 271 273 275 276 280 288 278 270 267 262 257 255 257 259 261 262 261 257 258 259 257 254 253 251 249 246 246 244 245 248 249 249 247 248
274 274 274 272 273 271 271 269 268 268 271 273 278 280 280 273 268 265 263 263 262 260 261 261 261 258 253 251 251 252 252 252 250 248 249 247 242 239 240 240 240 236 232
270 272 274 272 269 270 269 268 267 268 270 272 274 276 273 266 264 264 265 266 265 262 260 256 258 260 258 253 250 246 246 247 245 239 240 240 237 232 231 234 233 231 230
272 272 273 274 272 270 269 270 269 268 269 271 271 272 271 270 267 266 266 266 265 263 260 256 254 255 258 259 256 254 253 252 245 235 231 231 233 232 228 228 230 225 227
272 270 270 269 270 271 272 272 271 270 269 268 269 270 271 271 269 268 266 263 263 262 263 262 257 254 252 253 256 259 256 253 249 239 228 224 224 225 225 224 220 214 213
271 270 269 268 267 268 269 271 271 271 270 270 270 270 270 270 270 271 270 266 264 264 264 262 259 259 261 257 256 256 255 251 245 235 223 218 216 218 215 216 212 209 204